Wind_Speed
8 9 9 10 11 12 12 13 14 15 17 18 19 20 21 22 23 24 24 25 27 28 30 31 33 34 36 37 38 38 38 38 39 39 40 41 42 44 45 45 45 45 45 44 44 43 41 39 36 33 31 29 27 24 23 22 20 19 18 16 15 12 8 8 11 10 8 6 7 9 9 8 9 11 11 13 17 20 23 26 28 29 30 30 31 29 28 27
11 11 11 12 12 13 13 14 15 15 16 17 18 20 21 23 24 24 25 26 27 28 29 30 32 33 35 36 37 38 39 39 39 39 40 41 42 43 44 45 45 46 46 46 45 45 43 41 39 36 34 31 29 27 25 24 23 21 19 18 18 16 11 10 12 11 8 7 7 7 7 7 9 10 10 12 16 19 21 24 27 28 29 30 30 29 28 27
14 14 14 15 15 15 16 16 17 17 17 18 18 19 21 22 23 25 26 27 28 29 29 30 31 32 34 35 36 38 39 40 40 40 41 41 42 43 44 44 45 46 46 47 46 46 45 44 42 39 36 33 31 29 27 26 25 22 21 20 19 18 14 11 12 11 8 8 7 5 6 7 8 9 9 11 15 17 20 23 25 27 28 29 29 29 28 27
16 17 17 17 18 18 19 19 19 20 20 20 20 20 21 22 23 24 25 27 28 30 30 31 32 32 33 34 35 37 38 39 40 41 41 42 42 43 44 44 45 46 47 47 47 47 46 46 44 42 39 36 33 32 30 29 27 25 23 22 21 20 16 11 12 11 9 7 6 5 5 7 8 8 8 10 14 16 19 21 24 26 27 28 28 29 28 27
19 19 19 19 20 20 21 21 22 22 23 23 23 23 23 23 23 24 25 26 27 29 31 32 33 33 34 34 35 36 37 38 40 41 41 42 43 44 44 44 45 46 47 47 48 47 47 47 46 44 42 38 36 34 33 31 29 27 25 24 23 22 19 14 12 11 9 8 7 7 5 6 7 7 6 9 13 15 18 20 22 25 26 27 27 28 28 27
21 21 21 21 22 22 23 23 24 24 25 25 25 26 26 26 26 26 26 26 27 28 30 32 34 35 35 36 36 36 37 38 39 40 41 42 43 44 45 45 45 46 47 48 48 48 47 48 47 46 44 41 39 37 36 33 31 29 27 25 24 24 23 20 17 13 11 11 10 8 4 5 7 7 5 8 12 13 16 18 21 23 25 26 26 27 27 27
23 23 23 23 24 24 25 25 26 26 26 27 27 28 28 28 28 28 28 28 28 29 29 31 33 35 36 37 38 38 38 38 39 40 41 42 43 44 45 46 46 46 47 48 48 48 48 48 48 48 47 44 41 40 37 36 33 31 30 28 26 26 25 24 22 17 13 13 12 7 3 6 9 6 4 7 10 12 14 16 19 21 24 25 25 26 27 27
25 25 25 26 26 26 27 27 28 28 28 28 29 29 29 29 30 30 30 30 30 30 30 31 32 33 36 37 39 39 40 40 40 40 41 42 43 44 45 46 46 47 47 48 48 48 48 48 48 49 48 47 44 42 40 38 36 34 32 30 28 27 27 25 23 19 15 13 11 7 6 9 8 5 4 6 9 10 11 14 18 20 22 24 25 25 26 26
27 27 28 28 28 29 29 29 30 30 30 30 30 30 30 30 31 31 31 31 31 31 31 32 32 33 34 36 38 40 41 42 42 42 42 42 43 44 44 45 46 47 48 49 49 49 48 47 48 49 49 49 47 45 43 40 38 36 34 33 30 28 28 26 24 19 15 13 11 9 11 11 6 5 5 5 7 8 9 13 16 18 21 23 24 24 25 26
29 30 30 30 31 31 31 32 32 32 32 32 32 32 31 31 31 32 32 32 32 33 33 33 33 34 35 35 37 39 41 43 44 44 44 43 43 44 44 45 46 47 48 50 51 50 48 47 48 49 50 50 48 47 45 43 41 39 36 35 32 30 28 27 24 18 14 14 13 11 12 10 6 5 6 5 7 7 8 11 14 16 19 22 23 23 24 25
32 32 33 33 33 33 33 33 34 33 34 34 33 33 33 32 32 32 32 33 33 33 34 34 34 35 35 35 36 37 40 43 44 45 46 45 45 45 45 45 45 46 48 50 51 49 47 47 48 50 51 51 50 49 48 45 43 41 39 37 34 32 29 28 24 17 16 18 16 13 13 11 8 7 7 6 7 6 6 8 12 15 17 20 22 22 23 23
34 34 35 35 35 35 35 35 35 35 35 35 35 34 34 33 33 33 32 33 33 34 34 35 35 36 36 36 36 37 38 41 43 45 46 47 47 47 46 45 45 46 47 49 50 48 47 48 49 50 52 52 51 50 49 48 45 43 42 39 37 34 31 29 25 19 19 22 20 15 14 15 11 9 9 7 6 5 5 6 10 13 15 17 20 21 22 22
35 36 36 36 37 37 37 37 37 36 36 36 35 35 34 34 33 33 33 33 33 33 34 35 36 36 37 37 37 37 37 39 41 44 46 48 48 49 48 47 47 46 47 47 47 47 48 49 50 52 53 53 53 52 51 50 47 45 44 42 39 37 34 32 27 23 22 22 19 16 16 18 15 11 11 9 7 6 3 4 7 11 13 15 18 20 21 21
37 38 38 38 38 38 38 38 38 37 37 36 35 35 34 34 33 33 32 33 33 33 34 35 36 36 37 38 38 38 38 39 40 42 44 47 49 50 50 50 49 48 47 46 45 46 48 50 51 53 54 54 54 53 53 52 50 48 46 44 42 39 37 34 30 27 24 21 18 17 17 19 17 12 12 11 9 8 3 2 5 8 11 12 15 18 19 20
38 38 38 38 38 39 39 39 38 38 37 36 35 34 33 33 33 33 32 33 33 33 34 34 35 36 37 38 39 39 39 40 40 41 43 45 47 49 51 52 51 50 49 47 46 47 49 50 51 53 55 56 55 55 54 53 52 50 48 47 44 42 40 37 33 31 27 22 21 20 19 20 18 15 13 13 12 9 4 1 3 6 8 10 13 16 18 19
39 39 39 38 39 39 39 39 38 38 37 36 34 33 33 32 32 32 32 32 33 33 33 34 35 36 37 39 39 40 41 41 41 42 43 44 46 48 50 52 53 52 51 49 49 49 49 50 51 53 56 57 57 56 55 55 54 52 50 49 47 44 43 39 36 34 29 23 23 24 22 20 20 17 15 14 13 9 6 3 1 4 6 8 11 14 16 17
39 39 39 39 39 39 39 39 38 38 37 36 34 33 32 32 32 32 32 32 32 32 33 34 35 36 37 39 40 41 42 42 42 43 43 44 45 47 49 51 52 53 53 52 51 51 51 51 51 53 56 58 58 57 57 56 55 54 52 51 49 47 45 42 38 36 33 26 24 26 25 23 22 19 16 16 14 11 8 5 2 2 4 6 8 11 14 16
40 39 39 39 40 40 39 39 38 38 37 35 34 32 31 31 30 30 30 30 31 32 33 34 35 35 37 38 39 40 42 42 43 44 45 45 46 47 48 50 51 53 54 54 54 53 53 52 51 53 55 58 59 59 59 57 56 55 54 53 51 49 47 44 40 38 35 29 26 27 28 26 25 22 19 19 16 13 11 8 5 2 2 3 6 9 12 14
40 40 40 41 41 40 40 39 38 37 36 34 32 30 29 28 28 28 28 28 29 30 32 33 34 34 35 36 37 39 40 41 43 44 45 46 47 48 48 49 51 52 54 55 55 55 55 55 54 54 57 60 61 61 60 58 57 57 56 55 53 51 49 46 43 40 36 31 28 28 30 29 27 25 22 20 18 16 14 11 8 4 2 0 3 7 9 12
41 41 42 42 42 41 40 39 38 36 34 32 29 28 27 26 25 25 26 27 28 29 31 32 32 33 34 34 35 37 38 39 41 42 44 46 47 48 49 50 51 52 53 55 56 57 58 58 58 59 60 61 62 61 59 59 59 58 57 57 56 54 52 49 46 43 39 34 30 28 30 31 29 26 24 23 22 19 16 13 11 8 4 2 2 5 7 10
42 42 43 43 42 41 40 38 36 34 32 29 27 25 24 24 24 24 25 26 27 28 29 30 30 31 31 32 32 34 35 36 38 40 42 44 46 48 49 50 51 52 53 55 56 58 60 61 63 63 61 60 61 61 59 59 60 59 59 59 58 57 55 52 49 47 43 39 33 29 30 32 31 28 26 26 26 21 17 16 14 10 7 5 4 5 6 8
44 44 44 43 42 41 39 37 35 32 29 27 25 24 23 23 23 23 24 25 26 27 27 27 27 27 28 29 30 32 33 34 36 37 40 42 44 46 48 49 51 52 53 55 56 58 60 63 65 64 62 60 61 60 59 60 61 61 61 61 61 59 57 55 52 50 47 43 37 32 31 32 33 31 29 29 27 23 20 18 16 13 9 7 6 5 6 8
45 45 44 43 41 39 37 34 32 29 27 26 25 23 22 22 22 23 23 24 24 24 24 24 24 25 26 28 30 31 33 34 35 37 39 41 43 45 47 48 50 52 53 54 56 58 61 64 65 64 64 63 62 60 59 60 62 62 62 62 62 61 59 57 55 52 50 47 40 34 33 34 35 35 33 31 29 26 24 21 18 16 11 9 9 7 7 8
46 45 44 42 40 37 34 32 29 27 26 25 23 22 21 21 21 21 21 20 20 21 22 22 23 25 27 29 31 33 34 35 35 37 39 41 42 44 46 48 50 51 53 55 56 58 60 62 63 64 66 66 64 60 59 61 63 64 64 64 64 63 61 59 57 55 53 51 43 35 34 36 37 37 36 34 32 30 27 23 21 18 15 12 11 9 8 8
46 44 42 40 37 34 31 29 27 25 25 23 21 19 18 18 18 17 16 17 18 20 22 23 24 26 29 30 32 34 35 36 36 37 38 40 42 44 47 49 50 52 54 55 57 59 59 59 61 64 67 69 68 64 61 61 63 64 65 65 65 65 64 62 60 58 55 54 48 38 35 38 39 39 38 36 35 32 29 26 23 21 18 15 12 11 9 9
46 43 41 38 35 32 28 26 24 23 22 19 17 15 15 14 14 15 15 17 20 22 24 26 27 29 31 32 33 35 36 37 37 38 39 40 42 44 47 49 51 54 55 57 59 60 59 59 61 64 67 70 71 69 66 64 63 65 67 67 67 67 66 65 62 61 58 56 53 43 38 39 40 40 40 38 36 34 31 28 25 24 21 16 14 13 12 10
45 42 40 36 32 29 26 23 21 20 18 16 14 14 14 15 16 17 18 19 22 25 27 29 30 31 33 35 36 37 38 38 39 39 40 41 42 44 47 49 52 54 56 58 60 60 61 63 63 64 67 71 74 74 71 68 65 66 68 69 69 69 68 67 65 63 60 58 57 48 41 41 41 40 40 40 38 35 32 30 28 27 23 18 17 16 15 13
43 41 38 34 30 27 23 20 18 16 15 15 15 16 17 18 19 20 20 22 25 27 29 32 33 34 36 38 39 40 41 41 41 41 41 41 42 43 45 48 51 54 56 58 59 61 63 66 66 65 66 71 76 78 76 72 68 67 68 70 71 71 71 69 67 66 63 60 59 51 44 43 43 42 41 41 40 37 35 34 32 29 25 21 20 18 17 16
42 39 36 33 29 25 22 18 17 16 16 16 17 18 19 20 21 22 23 25 27 29 31 34 36 37 39 41 42 42 44 43 42 42 41 40 40 40 42 44 47 51 54 55 57 59 62 65 67 68 69 73 78 81 79 75 72 69 69 70 72 73 72 71 69 68 66 64 61 53 47 47 47 46 44 41 39 38 37 36 34 32 27 24 23 21 19 18
40 37 34 31 28 24 21 19 17 17 18 18 19 19 20 22 23 25 26 28 30 32 34 36 38 39 42 44 44 44 44 44 42 40 39 37 36 36 37 39 42 45 49 52 54 57 61 64 67 72 75 77 80 82 81 79 76 71 69 71 73 74 74 73 71 71 70 68 64 56 50 52 51 48 45 41 39 39 39 38 36 33 29 26 26 25 21 20
38 36 34 31 27 24 22 20 19 19 20 20 21 21 22 23 25 26 27 29 32 34 36 39 41 42 43 45 46 45 43 42 40 39 37 36 35 34 34 35 37 39 43 46 50 54 59 63 67 72 77 80 81 82 83 82 79 74 71 71 73 75 75 75 74 74 73 71 68 60 54 55 53 49 47 44 43 42 41 40 39 36 32 29 29 28 24 22
38 35 33 30 27 24 23 22 21 21 21 22 22 23 23 25 27 28 29 30 33 35 37 40 43 44 44 45 46 44 41 38 37 37 36 35 34 33 31 31 32 34 37 40 45 50 54 59 65 71 77 81 83 83 84 84 81 76 73 72 74 76 77 76 76 76 74 73 71 64 58 59 56 52 50 47 46 45 43 43 41 37 34 32 30 30 27 24
37 34 32 30 27 25 24 24 23 22 23 23 24 25 25 26 28 29 30 31 34 36 38 41 43 45 44 43 43 42 39 36 35 36 36 34 34 32 30 30 29 30 32 35 40 44 48 54 60 67 76 82 84 85 85 86 84 80 78 76 76 78 78 78 76 76 75 73 72 67 63 63 60 56 53 50 49 49 47 45 43 38 36 33 32 30 28 26
36 33 31 29 28 26 25 25 24 23 24 24 25 26 27 27 28 30 31 33 35 37 39 42 44 45 44 41 39 40 38 35 34 35 35 34 33 32 30 29 27 26 28 31 35 38 43 48 54 62 72 81 87 88 88 88 87 86 83 80 78 78 79 79 77 77 76 73 71 69 66 65 64 61 58 53 52 51 48 46 43 39 38 35 33 31 30 28
34 32 30 29 28 27 26 26 25 25 25 26 26 28 28 28 29 31 32 34 36 38 41 43 45 46 45 40 36 37 37 34 33 34 34 33 33 32 30 29 27 24 25 28 31 33 37 42 49 58 68 79 88 91 90 89 89 88 84 80 78 79 80 80 79 78 77 74 73 71 68 67 66 63 60 57 53 51 49 46 43 40 39 37 35 34 33 32
32 31 30 29 28 27 26 26 26 25 26 27 28 29 29 29 31 32 34 35 37 39 41 44 46 46 43 39 35 35 35 32 32 33 33 32 32 32 30 30 28 24 23 25 27 29 32 37 45 55 65 75 87 93 92 91 90 88 85 83 80 79 79 79 79 79 78 75 74 73 70 68 66 62 61 59 56 53 50 46 43 41 40 39 38 36 36 35
32 31 30 29 27 26 25 25 26 26 26 28 29 30 31 31 32 33 35 36 38 40 42 44 46 44 40 37 35 34 34 31 30 32 32 31 31 31 30 30 29 24 22 22 23 25 28 33 42 52 62 73 84 93 95 94 92 89 88 85 81 78 78 79 79 80 80 77 75 75 72 69 65 62 60 60 58 55 51 48 45 43 42 41 40 38 37 37
32 31 30 28 26 25 24 25 25 26 27 29 30 31 32 32 33 34 36 37 39 41 43 45 45 40 36 35 34 34 33 30 29 31 31 30 30 30 30 30 29 26 22 21 21 22 24 30 39 49 59 72 83 93 96 95 92 91 89 85 80 78 79 80 81 81 80 78 76 75 74 70 65 62 60 60 59 56 52 49 47 45 44 44 42 39 38 38
32 31 28 26 24 24 23 24 24 26 27 30 32 33 33 34 35 36 37 38 39 41 44 46 44 37 33 32 32 33 33 30 29 30 30 29 28 28 29 29 29 27 23 20 19 19 21 27 36 46 57 69 82 91 96 96 93 92 90 87 84 84 84 82 81 81 80 79 77 76 75 72 67 64 62 61 60 57 54 51 49 48 48 46 43 41 39 39
30 29 27 24 23 23 23 23 24 26 29 31 33 34 35 35 36 38 39 39 40 41 44 45 42 35 32 31 30 32 33 31 29 30 30 29 28 27 28 28 29 29 25 20 17 17 19 25 33 43 53 65 78 89 95 96 95 93 91 90 89 89 87 84 81 80 80 80 79 77 77 75 71 67 65 62 60 59 57 53 52 51 50 48 46 43 40 40
28 27 25 24 23 23 24 24 25 27 30 33 35 36 37 37 38 39 40 40 41 42 44 44 40 34 31 30 30 32 33 32 30 30 29 28 28 28 27 26 27 29 28 22 17 15 17 23 31 40 49 60 73 86 95 97 96 94 93 92 90 89 85 82 80 79 79 80 79 77 77 77 75 72 68 63 60 60 59 56 54 54 53 51 48 45 42 42
26 26 25 24 24 25 25 26 28 29 32 35 36 38 39 39 39 41 41 41 41 42 44 43 38 31 30 30 30 31 32 31 30 29 28 28 29 29 27 25 25 27 29 26 19 15 15 20 30 38 46 56 69 84 94 98 97 95 94 92 90 87 83 81 80 79 78 78 78 77 76 76 76 75 71 66 61 61 61 59 57 56 54 53 52 49 46 44
26 27 27 26 27 27 28 29 31 32 34 37 38 39 40 40 41 42 42 41 41 41 43 43 37 30 29 30 30 30 29 29 28 27 27 27 29 31 29 25 24 25 28 28 22 16 14 17 26 35 43 53 66 81 93 98 98 96 94 92 89 87 84 82 80 79 78 78 78 77 75 74 73 72 70 67 63 64 65 63 60 57 55 55 55 52 49 47
28 29 30 30 30 31 32 33 34 35 37 39 40 41 42 42 42 43 43 42 41 40 42 41 36 30 29 30 30 28 27 27 27 26 25 26 29 31 31 27 23 23 26 29 26 18 14 14 22 31 40 50 62 78 91 97 98 96 94 91 89 87 85 83 81 79 78 78 79 78 76 74 71 69 69 67 64 65 69 67 62 58 55 54 55 54 51 50
29 32 34 34 33 34 36 37 38 38 39 41 42 42 43 44 44 44 43 42 41 41 40 38 33 30 29 30 29 28 27 26 25 25 25 26 28 30 31 29 24 21 22 28 29 22 15 14 19 27 37 47 59 73 88 96 98 96 94 92 89 87 85 84 82 80 79 79 80 80 78 76 73 69 69 68 64 64 70 68 60 55 54 51 53 56 55 53
33 34 36 38 37 38 39 41 41 42 42 43 44 44 44 45 45 44 44 43 42 40 38 35 31 29 29 30 28 28 27 25 24 24 25 26 27 29 32 31 25 20 19 24 29 25 17 14 17 24 33 43 54 68 83 93 96 95 94 91 88 87 86 84 83 81 80 80 81 81 80 79 76 70 68 68 65 63 69 68 56 49 52 53 54 57 58 56
38 38 39 41 41 42 42 44 45 45 45 46 45 45 46 46 45 44 44 44 41 38 35 31 28 28 29 29 28 27 27 25 23 25 26 27 27 29 31 30 25 21 18 20 26 28 21 15 15 21 30 40 51 63 78 90 95 95 93 91 88 87 87 86 84 83 81 82 82 82 81 81 78 72 68 67 65 65 70 70 60 49 47 51 54 56 58 59
43 43 43 44 45 46 46 46 47 47 48 48 47 46 46 46 45 44 44 42 38 33 30 28 27 27 28 28 28 27 27 25 23 24 26 27 27 29 30 28 24 21 19 17 22 28 25 17 15 19 27 37 48 60 73 85 93 94 93 92 89 88 88 87 86 84 83 83 84 83 83 82 78 74 72 69 67 67 70 73 70 61 50 46 49 52 54 58
49 48 48 48 48 49 49 49 49 49 49 49 48 47 47 46 44 42 40 36 32 28 27 26 26 26 26 27 27 27 27 26 24 24 26 26 26 28 29 27 24 22 20 16 17 24 26 21 16 18 25 35 45 57 70 82 90 93 93 92 90 89 89 88 87 85 84 84 84 84 84 83 79 75 74 72 69 70 72 73 75 73 63 54 49 46 47 50
51 51 52 52 52 53 53 52 52 51 50 50 48 47 45 42 38 34 31 29 26 24 25 26 25 25 24 25 26 26 25 25 24 24 25 25 25 27 28 27 26 24 21 17 15 19 25 23 19 18 23 33 43 53 66 79 88 92 93 91 90 89 89 89 88 86 85 84 84 85 85 85 81 76 75 74 71 71 73 75 76 75 72 67 58 50 47 47
47 49 50 52 53 53 54 53 52 51 50 48 46 43 38 33 27 24 22 22 23 23 23 25 25 24 24 24 25 25 25 24 25 26 26 24 23 25 27 27 27 26 23 20 16 14 20 24 20 19 22 30 41 51 63 76 85 91 92 91 90 89 90 90 89 87 85 85 85 86 86 86 84 77 73 73 73 73 74 75 76 75 73 74 70 61 56 52
43 45 46 47 48 49 50 49 48 46 44 41 37 33 27 21 18 17 18 19 21 23 23 24 24 23 23 23 24 25 25 24 25 26 26 24 22 24 26 26 26 26 25 22 19 14 16 21 21 19 21 27 37 49 60 73 83 89 91 91 90 90 90 90 89 88 86 85 86 86 86 87 86 80 73 71 71 72 75 76 76 76 74 75 76 71 64 58
Wind_Direction
283 279 274 271 268 265 263 261 260 260 259 259 259 259 258 257 256 255 253 251 249 248 247 246 245 244 243 242 239 238 236 235 235 233 232 231 231 232 233 234 234 233 234 234 235 235 234 234 234 233 232 230 229 227 225 227 229 231 228 223 222 221 243 250 236 243 257 283 299 308 331 360 356 354 2 10 22 26 28 32 31 30 32 36 37 36 35 36
298 293 288 283 279 274 271 267 265 262 260 259 259 258 258 257 257 257 257 256 254 252 250 248 247 246 245 244 243 241 239 236 235 234 233 232 232 232 232 233 234 234 233 233 234 235 234 233 233 232 231 230 229 228 226 226 227 229 228 222 222 228 237 246 243 244 256 283 293 301 329 354 351 350 357 11 23 28 29 33 33 31 32 36 38 37 36 36
303 300 296 293 289 285 280 277 273 269 265 262 260 259 258 257 256 256 256 256 256 255 254 252 250 248 247 246 245 244 242 239 237 235 234 233 232 233 232 232 234 234 233 233 233 234 234 233 233 232 231 230 229 229 227 225 225 226 227 223 222 226 228 236 247 250 260 277 284 293 326 345 345 342 351 10 23 29 30 33 35 32 32 36 39 39 38 37
302 300 298 296 293 291 288 285 281 278 273 269 266 262 260 258 257 256 255 254 254 254 254 254 253 251 249 248 247 246 244 242 240 237 235 234 233 233 233 232 233 234 233 233 233 233 233 233 232 231 231 229 228 227 227 225 224 224 225 223 221 222 223 230 243 249 257 271 280 279 313 347 344 331 340 9 20 28 31 32 35 34 33 35 39 41 40 38
301 299 298 297 295 294 292 289 287 285 281 278 274 270 266 262 259 257 255 254 253 252 252 252 253 253 252 251 249 248 246 245 243 240 237 236 234 233 233 232 232 233 233 233 232 232 232 233 232 231 230 229 227 226 225 225 223 223 224 223 221 220 220 226 234 240 251 262 271 271 299 347 337 316 330 11 16 23 31 32 34 35 34 35 38 42 41 40
301 300 299 297 297 295 293 292 290 288 286 283 281 277 273 269 265 261 258 255 253 252 251 250 250 251 252 251 251 249 248 247 245 243 240 238 236 234 234 232 232 232 233 233 232 231 231 232 232 231 230 229 227 226 225 224 223 223 223 222 221 220 221 227 232 237 250 257 261 266 292 321 307 297 319 12 16 17 27 32 34 35 35 34 37 42 42 42
300 299 298 298 297 296 295 294 292 290 288 286 284 281 279 275 271 267 263 259 256 253 252 251 250 249 249 249 250 250 249 248 246 245 243 240 238 236 235 233 232 231 233 233 232 231 230 231 231 231 230 229 227 227 225 223 222 222 222 222 221 221 222 227 233 236 251 257 252 258 269 278 283 285 320 8 15 13 20 30 33 35 36 35 36 41 43 43
298 298 297 297 297 296 295 294 293 291 290 288 285 283 281 279 276 272 268 265 261 257 253 251 250 249 248 247 248 248 249 248 247 245 244 242 240 237 235 235 233 231 231 233 232 231 230 230 230 231 231 229 227 226 225 222 221 221 221 221 221 222 222 226 231 234 248 252 240 252 259 255 264 269 308 354 8 11 15 26 33 34 37 37 35 39 43 44
296 296 296 296 296 295 295 294 293 292 291 289 287 285 283 280 278 276 272 269 265 261 257 254 251 249 248 247 246 247 247 248 247 247 245 244 242 239 237 235 234 232 231 232 232 231 229 229 230 230 230 229 227 226 225 222 220 219 220 221 221 223 223 225 229 232 245 242 224 238 248 242 239 247 274 326 354 7 12 23 32 33 38 39 36 39 42 45
295 295 295 295 295 295 295 294 293 292 291 290 288 286 284 282 279 277 274 271 268 265 261 258 254 251 249 248 246 246 246 247 247 247 247 246 244 242 239 237 235 234 232 232 231 230 229 228 229 229 230 229 227 225 224 222 220 218 218 219 220 223 223 224 226 230 239 233 216 220 232 229 213 218 246 293 331 359 9 18 33 33 37 41 39 39 41 45
296 296 296 296 296 296 295 294 293 293 292 291 290 288 286 284 281 278 275 272 269 266 264 261 258 255 252 249 247 245 246 246 246 246 246 247 246 244 242 239 237 235 233 232 232 230 228 228 228 229 229 229 227 225 224 222 220 217 217 218 218 221 222 222 221 222 230 228 215 212 222 227 209 195 225 270 309 344 3 12 33 36 36 41 41 40 41 45
296 296 297 297 297 297 296 295 294 294 293 292 291 289 287 285 282 279 276 273 270 267 264 262 260 258 256 253 250 247 246 246 245 245 245 245 245 245 244 242 239 237 235 234 233 231 228 227 227 228 228 228 227 225 224 223 220 217 217 217 216 217 219 220 215 209 220 222 212 208 215 226 221 198 215 250 289 316 350 6 28 38 37 41 44 42 41 44
297 297 297 298 298 297 297 296 295 295 294 293 292 290 289 286 283 280 277 273 270 267 264 262 261 260 259 257 254 250 247 247 246 244 244 244 243 244 244 243 241 239 237 235 234 232 229 227 226 228 228 227 226 225 223 222 220 217 216 215 215 215 216 217 211 204 215 218 212 211 209 218 226 212 217 238 263 284 327 3 20 39 39 42 46 45 43 43
298 298 298 299 299 298 297 297 296 296 295 294 293 291 289 287 284 281 277 274 271 268 265 263 262 260 260 258 257 254 250 249 247 245 244 243 242 242 242 242 242 241 239 237 234 232 230 227 226 227 228 226 226 225 223 221 220 217 215 214 214 213 214 214 208 205 214 217 215 216 207 212 224 219 220 232 245 262 283 355 12 37 41 43 47 48 46 43
300 300 300 301 300 299 299 298 298 297 296 295 294 292 289 287 284 281 277 274 271 269 266 264 262 260 259 258 257 255 253 251 250 248 245 243 242 241 240 240 240 240 239 237 235 233 231 228 226 227 228 226 225 224 223 221 219 217 215 214 212 211 212 211 207 206 211 215 215 214 206 208 220 218 216 225 237 250 248 268 1 31 41 45 48 51 50 46
302 302 303 303 302 301 301 300 300 299 298 296 295 293 289 286 283 280 277 273 271 269 266 264 262 260 258 257 256 255 254 252 251 249 247 245 243 241 240 239 238 238 238 236 234 233 232 230 227 226 228 227 224 223 222 221 218 217 215 213 212 211 211 210 207 207 208 211 213 213 207 206 215 215 212 221 232 239 234 230 320 19 33 46 52 53 55 51
305 305 306 306 305 304 303 303 302 300 299 298 296 293 290 286 282 279 276 273 270 268 265 262 261 259 258 257 256 255 254 253 252 251 249 247 245 243 241 239 237 237 236 235 233 232 232 231 229 227 228 227 225 222 221 220 218 216 215 213 212 210 210 209 206 206 208 207 209 213 211 211 218 220 216 219 223 225 223 218 230 348 19 47 56 57 59 58
308 309 309 308 307 306 306 305 303 302 301 299 297 294 290 286 282 278 275 272 269 266 264 261 260 259 258 257 256 256 255 254 253 252 250 248 246 244 242 240 237 235 234 233 232 231 232 231 230 228 228 228 225 222 220 219 218 216 214 213 212 210 210 209 205 205 206 204 206 211 213 217 223 222 217 216 217 218 219 214 213 255 358 46 63 63 64 65
311 311 312 311 310 309 307 306 305 303 302 300 298 294 289 285 281 277 273 270 267 265 264 263 261 259 259 258 257 257 256 256 254 253 252 250 248 246 244 242 239 236 233 232 230 229 229 230 228 227 228 228 226 222 219 218 218 216 214 212 211 210 209 208 204 203 203 201 205 209 209 214 219 219 217 216 215 216 220 220 215 219 243 66 82 76 72 72
313 313 313 313 312 310 309 308 306 305 303 301 297 293 288 284 280 275 271 268 266 265 265 264 264 263 262 261 260 259 258 258 257 256 254 252 250 248 246 244 241 238 235 232 229 228 227 227 225 224 226 228 227 224 220 218 217 216 213 212 211 209 208 207 203 201 201 200 204 208 207 208 212 215 215 214 214 214 219 226 224 221 224 219 148 104 87 82
314 314 314 314 313 311 310 309 307 306 303 300 296 291 287 283 279 274 271 268 267 267 266 267 267 267 267 266 266 264 263 261 260 259 257 255 253 250 248 246 243 241 237 234 230 227 226 224 223 223 226 229 228 225 220 217 217 215 213 211 211 209 207 206 203 201 201 199 200 205 207 208 209 211 212 213 214 214 218 226 227 225 224 220 199 144 112 96
314 315 315 314 313 311 311 309 308 306 303 299 295 290 286 282 277 273 271 270 271 271 271 271 271 272 273 273 272 270 268 266 265 263 260 258 256 253 250 248 246 243 240 237 233 229 226 224 222 223 226 230 229 225 221 218 216 215 213 211 210 209 206 205 203 201 201 200 199 203 205 208 209 209 211 212 212 213 219 223 223 224 226 224 213 179 140 117
314 315 314 314 313 312 311 309 307 305 302 297 294 291 287 282 278 275 275 274 275 276 276 277 278 278 278 278 278 275 273 270 268 265 263 261 258 256 253 250 248 245 243 240 236 232 228 225 223 223 225 229 230 226 222 219 216 214 213 211 210 209 206 205 203 201 201 200 200 203 205 209 211 210 211 211 209 213 219 220 219 221 222 223 220 200 163 136
314 314 314 314 313 312 310 309 306 303 300 297 295 292 288 284 280 279 278 278 279 280 281 282 282 283 283 282 281 280 278 275 271 267 265 263 260 257 255 252 249 247 244 242 240 236 232 227 223 222 223 228 230 228 223 220 217 214 212 210 210 209 207 205 203 200 201 201 198 198 204 208 210 210 210 210 209 211 217 218 218 219 217 217 219 209 180 154
313 313 314 314 313 311 310 308 305 302 300 298 296 294 290 286 284 283 283 284 284 285 286 286 287 287 287 286 284 283 281 279 276 272 268 265 262 259 256 254 251 248 246 243 241 239 236 229 224 221 220 224 228 227 224 221 217 214 212 210 209 209 207 205 203 200 202 202 198 197 201 204 206 207 207 209 210 210 214 217 217 220 218 214 214 208 190 170
312 313 314 314 312 311 308 305 302 301 301 300 301 301 298 295 294 293 293 292 291 292 293 293 293 293 292 291 290 289 287 285 283 280 275 270 267 262 259 255 252 250 247 244 242 240 238 233 227 222 219 220 223 225 224 222 218 214 212 210 208 208 207 206 203 200 202 203 200 199 200 200 201 204 204 207 210 209 211 215 217 220 218 211 211 206 192 181
312 313 313 313 311 309 305 301 299 299 300 302 307 308 306 304 302 300 299 299 298 298 299 298 298 298 299 299 299 298 295 292 291 288 283 278 273 268 263 259 255 251 248 245 242 240 238 234 230 224 219 218 220 221 221 220 218 214 212 209 208 207 207 206 203 200 201 202 200 199 199 197 198 202 204 206 208 208 209 213 216 219 216 209 211 207 196 187
311 312 312 311 310 307 300 294 293 294 298 303 306 307 305 304 303 302 302 302 301 301 302 304 304 305 306 306 305 305 302 298 296 293 289 285 279 273 267 262 257 253 249 246 243 239 236 233 231 226 220 218 218 219 219 219 218 214 212 209 207 207 206 206 204 201 201 201 199 196 196 197 199 201 204 207 208 207 209 211 214 216 213 207 209 209 201 192
310 311 311 310 308 303 292 285 283 287 293 298 301 302 302 303 303 304 305 304 304 305 307 308 308 310 311 310 310 310 308 305 302 298 295 291 286 279 272 265 258 254 250 246 242 238 235 231 229 226 221 217 216 217 217 217 217 214 211 209 207 206 206 205 204 202 201 200 197 194 195 199 203 203 204 206 206 207 210 211 213 214 211 206 208 209 205 199
309 310 309 307 305 298 285 276 276 280 287 293 296 299 301 303 304 305 307 308 308 309 311 311 311 314 315 314 313 312 310 308 306 303 300 297 293 287 279 270 262 255 250 246 242 237 234 229 225 223 220 216 214 215 215 215 216 214 211 209 208 207 205 204 204 203 202 201 197 194 196 201 205 205 204 202 202 205 209 211 213 214 211 207 207 208 208 205
308 308 306 304 301 293 279 271 271 275 284 290 294 298 301 304 305 306 308 309 310 312 313 313 314 317 318 315 313 313 312 310 310 308 306 303 300 294 286 277 267 259 252 247 243 238 234 230 225 221 218 215 213 212 212 213 214 214 211 209 208 207 205 204 204 204 202 201 198 196 197 201 204 205 204 201 201 204 207 210 212 212 211 209 207 207 207 207
306 305 303 300 297 288 274 267 268 274 282 289 293 298 302 304 304 306 308 310 311 312 313 314 316 318 318 315 312 312 312 312 312 311 310 309 306 301 295 285 275 266 258 252 247 242 237 231 226 220 216 214 211 209 210 211 212 212 210 209 208 207 206 204 205 205 203 203 201 198 199 202 202 203 204 202 202 204 206 209 211 211 211 209 207 207 207 208
304 302 300 297 294 285 271 264 265 272 280 287 292 297 300 303 304 305 308 309 311 312 314 315 316 317 317 313 310 310 311 312 313 312 311 312 311 308 305 297 286 274 264 256 250 244 238 231 225 219 214 212 210 208 207 208 209 209 208 207 207 206 205 204 204 205 204 204 202 199 199 202 202 201 203 202 202 204 206 208 211 211 210 209 208 208 209 211
301 299 296 293 291 283 271 262 263 269 277 284 290 295 299 302 304 305 308 310 312 313 314 315 315 316 316 312 308 307 309 312 314 311 311 313 314 314 314 310 300 283 268 259 252 246 238 230 222 216 211 208 207 206 205 205 206 206 206 206 206 205 205 204 203 204 204 203 202 199 199 203 202 202 203 203 203 205 206 209 210 209 209 209 208 209 211 213
299 296 293 291 288 282 270 262 263 268 275 283 289 293 298 302 304 306 309 311 312 314 314 315 316 316 314 312 308 306 309 313 313 310 312 315 317 319 321 321 313 293 274 263 255 248 240 229 220 214 208 206 205 204 203 203 204 205 205 205 205 204 205 205 204 204 204 203 202 199 200 204 204 203 205 205 205 206 207 209 209 208 208 208 208 210 212 214
296 293 291 289 286 279 270 262 263 268 275 282 288 293 298 302 305 308 310 311 313 313 313 314 316 316 314 312 311 308 309 313 312 310 312 316 320 322 326 328 323 304 283 271 261 251 240 227 219 212 206 204 203 202 202 202 202 203 204 204 205 204 204 205 204 204 203 202 202 199 199 203 205 205 205 206 207 208 208 208 208 207 207 208 210 212 214 215
294 291 290 288 283 277 269 263 264 269 276 283 289 294 298 302 306 308 310 311 312 312 313 314 317 316 313 313 313 310 309 311 310 309 312 317 321 325 329 334 332 317 295 281 269 255 241 226 218 212 206 202 201 201 201 201 201 201 201 203 204 203 204 205 205 204 203 201 201 199 199 202 204 204 206 206 207 209 208 208 208 206 206 209 211 214 216 216
292 290 288 285 280 274 268 265 266 271 278 285 290 295 299 303 306 309 310 311 312 312 312 315 317 315 313 314 314 309 306 307 307 307 311 316 321 327 332 336 337 328 308 292 279 261 242 227 219 213 207 203 200 200 200 200 200 200 200 201 201 202 204 205 205 204 203 201 200 199 199 200 201 201 203 205 206 207 207 207 207 206 206 210 214 217 218 217
290 288 285 282 277 272 268 267 270 275 281 287 292 295 299 304 307 309 310 311 312 312 313 315 316 314 312 315 314 308 305 305 304 305 310 314 320 327 333 337 341 337 321 302 288 268 243 227 220 214 209 204 200 199 200 200 199 199 199 199 199 201 202 203 204 204 203 202 200 199 199 198 198 198 199 202 204 205 205 205 206 206 208 212 216 218 218 217
288 285 282 278 274 271 270 271 274 280 285 289 292 296 299 304 307 308 309 310 311 311 312 315 314 312 312 315 313 307 305 305 304 305 309 312 317 326 333 337 342 343 333 314 297 276 246 228 220 215 211 206 201 199 199 200 200 199 199 198 199 202 201 200 202 203 202 202 200 200 199 198 198 198 199 201 203 203 204 205 206 207 209 213 216 218 219 217
286 282 279 276 273 272 273 276 279 284 287 290 292 296 300 304 306 307 308 309 310 310 311 313 311 309 312 314 313 309 307 307 305 305 308 309 313 321 329 335 342 347 343 327 306 284 254 231 221 215 211 208 203 199 199 200 200 199 199 199 200 203 202 201 201 202 202 202 201 200 200 200 201 201 202 205 206 205 204 205 208 209 210 213 216 218 220 219
284 280 277 275 274 275 277 280 283 286 288 289 292 296 299 303 305 306 307 307 308 309 310 310 308 307 310 312 311 312 312 310 306 306 308 307 310 316 323 331 341 349 349 339 318 293 265 237 223 215 210 208 204 200 199 200 200 200 199 199 200 202 202 201 202 202 202 202 201 201 200 201 203 205 207 210 211 210 209 208 209 210 211 215 217 219 221 221
282 279 277 276 276 278 280 282 284 286 287 288 292 295 298 301 303 304 304 305 306 307 307 307 304 304 308 308 309 313 315 312 309 309 309 307 308 313 318 325 337 349 352 346 331 303 274 245 228 218 210 208 206 202 200 200 200 200 200 199 200 201 201 201 201 201 201 201 201 201 201 201 203 205 208 210 210 211 213 212 211 210 212 216 218 219 221 221
282 279 278 277 279 280 281 282 283 285 287 289 292 295 297 300 302 302 302 303 304 304 304 302 300 301 305 306 306 312 314 313 314 314 311 308 309 312 316 321 332 346 353 352 342 318 285 253 232 221 213 209 207 204 201 200 200 201 201 200 200 201 201 201 201 201 200 200 200 200 200 200 200 202 204 204 205 209 212 213 212 211 212 216 219 219 220 221
281 280 279 279 280 281 281 282 284 286 287 289 292 295 297 299 300 300 300 301 301 301 300 298 296 299 303 304 307 310 311 312 317 316 312 312 313 313 315 317 325 340 352 355 349 332 298 263 236 223 216 211 208 206 202 201 200 201 201 201 200 201 202 201 201 200 199 200 200 199 199 198 197 198 200 201 203 207 210 210 211 212 212 215 219 219 219 221
281 279 279 280 280 280 281 282 284 286 287 289 292 295 296 297 298 299 299 299 299 298 296 293 293 298 302 305 308 310 310 312 317 315 313 316 318 317 316 314 316 331 348 357 355 342 313 273 242 224 218 213 209 207 204 202 201 201 202 202 201 200 202 202 201 200 199 199 200 199 198 197 197 197 199 201 203 207 209 207 206 212 214 216 219 219 219 220
280 278 278 279 280 280 280 282 284 285 287 289 292 294 295 296 297 298 298 298 296 294 291 288 292 298 301 304 309 311 311 312 315 313 313 318 321 320 317 312 311 322 340 357 359 348 326 288 251 227 218 214 209 207 206 203 201 201 201 202 201 200 202 202 201 200 199 199 199 199 198 198 198 198 200 202 203 207 210 206 202 206 211 216 222 222 219 220
277 277 276 277 278 279 279 281 283 285 287 289 291 293 294 295 296 297 296 295 293 289 285 286 292 297 299 303 308 310 312 314 314 312 311 317 322 321 319 315 311 317 330 350 1 353 336 304 264 232 219 215 210 207 206 204 202 201 201 202 201 201 202 202 202 201 199 199 199 198 198 198 198 199 201 202 203 207 210 208 205 204 203 207 217 222 221 221
275 275 275 275 276 277 278 279 281 283 285 288 290 291 293 294 295 295 294 291 286 282 282 286 292 296 299 303 306 308 311 314 314 310 310 316 321 320 319 318 314 315 324 338 357 358 345 319 279 241 221 215 211 207 205 205 203 202 201 202 201 201 202 202 202 201 200 200 199 198 198 198 198 199 201 202 204 207 210 211 210 209 205 202 205 212 217 220
275 275 274 274 275 276 277 278 280 282 284 286 288 291 292 293 293 291 287 282 279 278 281 287 293 298 300 302 304 307 310 312 311 308 309 314 317 317 317 318 317 316 319 326 343 358 351 331 295 256 228 215 211 208 206 205 204 202 201 202 202 201 202 203 203 202 201 201 200 199 198 198 198 199 201 203 205 208 210 212 213 212 209 205 202 205 210 214
278 277 276 275 275 275 277 278 279 281 283 286 288 290 291 290 287 282 277 274 275 278 282 288 294 300 303 303 304 306 308 309 307 305 308 312 312 312 314 316 316 315 316 319 327 347 353 340 312 272 240 219 212 209 206 204 204 203 202 202 202 201 202 203 203 202 202 201 201 199 199 199 199 199 201 204 207 209 211 212 213 212 210 208 205 206 210 212
283 282 280 279 278 278 278 279 281 282 284 286 287 288 286 282 277 273 272 273 276 280 285 290 296 302 306 305 305 307 308 308 305 303 306 308 308 307 309 312 314 313 313 315 319 328 346 346 326 288 253 228 215 210 207 205 204 204 203 202 202 202 202 203 204 203 202 202 201 200 199 199 199 198 200 204 208 211 213 213 213 212 211 209 209 210 211 211
Height
10928 10928 10928 10928 10928 10927 10927 10927 10927 10927 10927 10926 10926 10926 10926 10926 10926 10926 10927 10927 10927 10927 10928 10928 10929 10930 10931 10932 10933 10934 10936 10938 10940 10942 10945 10946 10948 10949 10951 10952 10955 10958 10959 10961 10963 10965 10968 10971 10974 10977 10979 10981 10983 10985 10986 10987 10988 10989 10991 10992 10992 10993 10993 10993 10992 10993 10993 10993 10993 10993 10993 10993 10993 10993 10993 10992 10991 10990 10988 10986 10985 10983 10981 10978 10976 10974 10973 10971
10927 10926 10926 10926 10926 10925 10925 10925 10925 10925 10924 10924 10924 10924 10924 10924 10924 10924 10924 10925 10925 10925 10925 10926 10926 10927 10928 10929 10930 10931 10932 10934 10936 10939 10940 10943 10945 10945 10947 10950 10951 10954 10956 10958 10960 10962 10965 10968 10971 10974 10977 10979 10981 10983 10985 10986 10987 10988 10990 10991 10991 10992 10992 10992 10992 10993 10993 10993 10993 10993 10994 10994 10994 10994 10994 10994 10993 10991 10990 10988 10986 10984 10982 10980 10977 10976 10974 10973
10925 10925 10924 10924 10923 10923 10923 10922 10922 10922 10922 10922 10922 10922 10922 10921 10922 10922 10922 10922 10922 10922 10923 10923 10923 10924 10925 10925 10926 10927 10929 10931 10933 10935 10937 10939 10941 10942 10944 10947 10948 10950 10952 10954 10956 10959 10962 10965 10968 10971 10974 10977 10979 10981 10983 10984 10985 10987 10989 10990 10990 10991 10992 10992 10992 10993 10993 10993 10993 10994 10994 10995 10995 10995 10995 10995 10994 10992 10991 10989 10987 10986 10984 10982 10979 10977 10976 10974
10924 10923 10923 10922 10921 10921 10920 10920 10919 10919 10919 10919 10919 10919 10919 10919 10919 10919 10919 10919 10919 10920 10920 10920 10920 10921 10922 10922 10923 10924 10925 10927 10929 10931 10933 10935 10937 10938 10940 10943 10944 10946 10948 10951 10953 10956 10959 10961 10965 10968 10972 10975 10977 10978 10980 10981 10984 10986 10987 10988 10989 10990 10991 10992 10992 10992 10993 10993 10994 10994 10995 10995 10995 10995 10995 10995 10995 10993 10992 10990 10989 10987 10985 10983 10981 10979 10977 10976
10922 10921 10921 10920 10919 10919 10918 10917 10917 10916 10916 10915 10915 10915 10915 10915 10916 10916 10916 10916 10916 10916 10917 10917 10917 10918 10919 10919 10920 10921 10922 10923 10925 10927 10929 10931 10932 10934 10936 10939 10941 10942 10944 10947 10949 10953 10955 10958 10961 10965 10968 10972 10974 10975 10977 10979 10982 10984 10985 10987 10988 10989 10991 10991 10991 10992 10993 10993 10994 10994 10994 10994 10995 10995 10996 10996 10996 10995 10993 10992 10990 10989 10987 10985 10983 10981 10979 10978
10919 10919 10918 10918 10917 10916 10915 10915 10914 10913 10913 10912 10912 10911 10911 10911 10912 10912 10912 10913 10913 10913 10913 10913 10914 10914 10915 10916 10916 10917 10918 10920 10921 10923 10925 10927 10928 10930 10932 10934 10937 10938 10940 10943 10946 10949 10952 10955 10958 10961 10964 10968 10970 10972 10974 10977 10980 10982 10984 10986 10987 10988 10989 10990 10991 10992 10992 10993 10993 10994 10994 10994 10995 10995 10996 10996 10996 10995 10994 10993 10992 10990 10988 10987 10985 10982 10981 10979
10917 10917 10916 10915 10914 10914 10913 10912 10911 10910 10910 10909 10908 10908 10908 10907 10907 10908 10908 10909 10909 10909 10910 10910 10910 10911 10911 10912 10913 10913 10914 10916 10917 10918 10920 10922 10924 10926 10928 10930 10932 10935 10936 10939 10942 10946 10949 10951 10954 10957 10960 10964 10967 10969 10972 10975 10977 10980 10982 10984 10985 10986 10988 10989 10990 10991 10992 10993 10993 10993 10993 10994 10995 10996 10996 10996 10996 10996 10995 10994 10993 10992 10990 10988 10986 10984 10982 10981
10915 10914 10914 10913 10912 10911 10910 10909 10908 10907 10906 10905 10905 10904 10904 10903 10903 10904 10904 10904 10905 10905 10906 10906 10906 10907 10907 10908 10909 10910 10910 10911 10912 10913 10915 10917 10919 10921 10924 10925 10928 10931 10933 10934 10937 10941 10945 10948 10951 10953 10956 10959 10963 10966 10968 10971 10974 10977 10980 10981 10983 10985 10986 10988 10989 10990 10992 10992 10992 10992 10993 10994 10996 10996 10996 10996 10997 10997 10996 10995 10994 10993 10991 10990 10988 10986 10984 10982
10913 10912 10911 10910 10909 10908 10907 10906 10905 10904 10903 10902 10901 10900 10900 10900 10899 10899 10900 10900 10900 10900 10901 10902 10902 10902 10903 10904 10905 10906 10906 10906 10908 10909 10910 10912 10914 10916 10919 10921 10923 10926 10928 10930 10933 10937 10941 10945 10947 10950 10952 10955 10959 10962 10965 10968 10971 10975 10977 10979 10981 10983 10985 10986 10988 10990 10992 10992 10992 10992 10993 10994 10995 10996 10996 10997 10997 10997 10997 10996 10995 10994 10993 10991 10990 10988 10986 10984
10910 10909 10908 10907 10906 10905 10903 10902 10901 10900 10899 10898 10897 10896 10896 10895 10895 10895 10895 10895 10895 10896 10896 10897 10897 10898 10899 10900 10901 10902 10901 10902 10903 10905 10906 10907 10909 10911 10914 10917 10919 10922 10924 10926 10928 10933 10938 10942 10943 10945 10947 10950 10954 10958 10961 10964 10968 10972 10974 10976 10980 10982 10984 10986 10988 10990 10991 10991 10991 10992 10993 10994 10995 10996 10996 10997 10998 10997 10997 10997 10996 10995 10994 10993 10991 10989 10987 10985
10907 10906 10905 10904 10902 10901 10900 10898 10897 10896 10895 10894 10893 10892 10892 10891 10891 10891 10891 10891 10891 10891 10891 10892 10892 10893 10894 10895 10896 10897 10897 10897 10899 10900 10902 10903 10904 10906 10909 10912 10915 10917 10919 10921 10924 10930 10935 10937 10939 10941 10942 10945 10949 10953 10957 10961 10965 10969 10971 10974 10977 10980 10982 10984 10987 10990 10990 10989 10989 10991 10992 10993 10994 10995 10996 10997 10998 10998 10998 10997 10996 10995 10995 10994 10993 10991 10989 10987
10904 10903 10902 10900 10899 10897 10896 10894 10893 10892 10891 10890 10889 10888 10887 10886 10886 10886 10886 10886 10886 10886 10886 10887 10887 10888 10888 10890 10891 10892 10893 10893 10894 10895 10897 10898 10900 10902 10904 10907 10910 10912 10915 10918 10922 10927 10930 10933 10935 10936 10936 10940 10944 10949 10953 10957 10961 10965 10968 10971 10975 10978 10980 10983 10986 10989 10988 10986 10988 10989 10990 10991 10992 10994 10996 10997 10998 10998 10998 10998 10997 10996 10996 10995 10994 10993 10991 10990
10901 10900 10898 10897 10895 10894 10892 10890 10889 10888 10886 10885 10884 10883 10882 10882 10881 10881 10881 10881 10881 10881 10881 10882 10882 10883 10883 10884 10885 10887 10888 10888 10889 10890 10891 10893 10895 10897 10899 10902 10905 10908 10911 10914 10919 10923 10925 10928 10930 10929 10931 10936 10940 10944 10949 10953 10957 10961 10964 10968 10972 10975 10978 10980 10984 10987 10986 10986 10987 10988 10989 10989 10991 10994 10995 10997 10998 10998 10999 10999 10998 10997 10996 10996 10995 10994 10993 10991
10898 10896 10895 10893 10891 10889 10887 10886 10885 10883 10882 10880 10880 10879 10878 10877 10876 10876 10876 10876 10876 10876 10876 10877 10877 10878 10878 10879 10880 10881 10883 10883 10884 10885 10886 10887 10889 10891 10894 10896 10899 10903 10906 10910 10915 10917 10919 10922 10924 10924 10926 10931 10934 10938 10943 10948 10953 10957 10960 10964 10968 10972 10975 10977 10981 10984 10983 10986 10988 10988 10988 10988 10990 10993 10995 10997 10998 10998 10998 10999 10998 10997 10997 10997 10996 10995 10994 10993
10894 10892 10891 10889 10887 10885 10883 10881 10880 10878 10877 10876 10875 10874 10873 10872 10871 10871 10870 10870 10870 10871 10871 10872 10872 10872 10873 10873 10874 10875 10876 10878 10879 10880 10881 10882 10884 10886 10888 10891 10894 10897 10901 10906 10909 10911 10913 10916 10919 10920 10921 10924 10929 10934 10938 10943 10948 10952 10956 10960 10965 10969 10972 10974 10979 10981 10981 10985 10987 10986 10987 10987 10988 10992 10994 10996 10997 10998 10998 10999 10999 10998 10998 10998 10997 10996 10995 10994
10890 10888 10887 10885 10882 10880 10878 10877 10875 10873 10872 10871 10870 10869 10868 10867 10866 10865 10865 10865 10865 10866 10866 10867 10866 10867 10868 10868 10868 10869 10870 10872 10873 10874 10875 10876 10878 10880 10882 10885 10888 10892 10895 10900 10903 10905 10907 10910 10914 10916 10916 10918 10924 10928 10933 10938 10943 10948 10952 10956 10961 10965 10968 10972 10976 10979 10980 10983 10985 10985 10986 10986 10987 10990 10993 10995 10996 10997 10998 10999 10999 10999 10999 10998 10998 10997 10997 10996
10886 10884 10882 10880 10878 10875 10874 10872 10870 10868 10867 10866 10865 10864 10863 10862 10861 10860 10860 10860 10860 10860 10861 10861 10861 10862 10862 10862 10863 10864 10864 10866 10867 10868 10870 10871 10872 10874 10876 10878 10882 10885 10889 10893 10896 10899 10901 10905 10909 10911 10911 10913 10918 10923 10927 10932 10938 10944 10949 10953 10957 10961 10965 10969 10973 10977 10979 10981 10983 10984 10985 10985 10986 10989 10992 10994 10995 10997 10997 10998 10999 10999 10999 10999 10999 10998 10998 10997
10882 10880 10878 10876 10873 10871 10869 10867 10865 10863 10862 10861 10860 10859 10858 10857 10856 10855 10855 10855 10855 10855 10855 10856 10856 10857 10857 10857 10858 10858 10859 10860 10861 10862 10863 10865 10866 10868 10870 10872 10875 10879 10883 10887 10890 10893 10896 10900 10903 10905 10906 10907 10910 10915 10920 10927 10934 10939 10944 10948 10952 10957 10962 10966 10970 10974 10977 10980 10981 10983 10983 10984 10986 10988 10990 10992 10994 10996 10997 10998 10998 10999 10999 10999 10999 10999 10999 10998
10878 10876 10873 10871 10868 10866 10864 10862 10861 10859 10857 10856 10855 10854 10853 10852 10851 10851 10850 10850 10850 10850 10850 10851 10852 10852 10852 10853 10853 10854 10854 10854 10855 10856 10857 10858 10860 10862 10864 10866 10868 10872 10876 10880 10884 10887 10890 10893 10896 10898 10898 10898 10901 10908 10917 10924 10929 10934 10940 10944 10948 10953 10958 10962 10967 10971 10974 10978 10980 10980 10981 10982 10985 10986 10988 10991 10993 10994 10996 10997 10998 10999 10999 11000 11000 11000 11000 10999
10874 10871 10869 10866 10864 10862 10860 10858 10856 10854 10853 10852 10851 10849 10848 10848 10847 10846 10846 10846 10846 10846 10846 10847 10847 10848 10848 10849 10849 10849 10850 10850 10850 10851 10851 10852 10854 10855 10857 10859 10861 10864 10868 10872 10876 10879 10882 10885 10888 10888 10889 10891 10896 10905 10914 10920 10924 10929 10935 10940 10943 10948 10953 10958 10963 10967 10970 10974 10977 10978 10979 10981 10983 10984 10987 10990 10991 10992 10995 10996 10997 10998 10999 11000 11001 11001 11001 11000
10870 10868 10865 10862 10860 10857 10855 10853 10851 10850 10848 10847 10847 10846 10845 10844 10843 10843 10843 10842 10842 10843 10843 10843 10844 10844 10844 10844 10845 10845 10845 10845 10846 10846 10846 10846 10847 10848 10850 10852 10854 10857 10860 10864 10868 10871 10874 10877 10877 10879 10884 10889 10894 10901 10910 10915 10919 10924 10930 10934 10938 10943 10948 10953 10958 10962 10966 10970 10973 10975 10977 10979 10981 10983 10985 10987 10988 10991 10993 10995 10997 10998 10999 11000 11001 11001 11001 11001
10866 10864 10861 10858 10856 10853 10851 10849 10847 10846 10844 10843 10843 10842 10841 10841 10840 10839 10839 10839 10839 10839 10840 10840 10841 10841 10841 10841 10840 10841 10841 10841 10842 10842 10841 10841 10841 10842 10843 10845 10847 10849 10852 10856 10859 10862 10865 10867 10870 10877 10884 10887 10889 10896 10904 10909 10914 10919 10924 10929 10933 10938 10943 10949 10954 10958 10962 10966 10970 10972 10974 10976 10978 10980 10983 10985 10987 10989 10992 10994 10996 10997 10998 10999 11000 11001 11001 11001
10863 10860 10858 10855 10852 10849 10847 10845 10843 10842 10840 10839 10839 10839 10838 10838 10837 10837 10836 10836 10836 10836 10837 10837 10838 10838 10838 10837 10836 10836 10836 10836 10837 10837 10836 10835 10835 10836 10836 10838 10839 10841 10844 10847 10850 10853 10855 10859 10867 10875 10879 10880 10882 10890 10898 10903 10908 10913 10918 10924 10928 10933 10939 10944 10949 10954 10958 10963 10967 10970 10972 10974 10975 10978 10980 10982 10985 10988 10990 10992 10994 10996 10997 10998 10999 11000 11001 11001
10859 10856 10854 10851 10848 10846 10844 10842 10840 10839 10837 10836 10836 10836 10835 10835 10834 10834 10834 10834 10834 10834 10834 10835 10835 10835 10834 10834 10833 10832 10831 10831 10831 10831 10830 10829 10829 10829 10830 10830 10831 10833 10836 10838 10841 10843 10846 10854 10864 10869 10872 10874 10877 10885 10892 10897 10902 10907 10912 10918 10923 10928 10934 10939 10944 10950 10954 10958 10962 10966 10968 10970 10973 10975 10978 10980 10982 10986 10988 10990 10992 10994 10996 10997 10998 10999 11001 11001
10855 10853 10850 10847 10844 10842 10841 10839 10837 10835 10834 10833 10833 10833 10833 10832 10832 10832 10832 10833 10832 10832 10832 10832 10832 10831 10830 10829 10828 10827 10826 10825 10824 10824 10823 10823 10822 10822 10822 10823 10824 10825 10827 10829 10832 10834 10840 10850 10857 10861 10865 10868 10872 10878 10885 10889 10895 10901 10906 10913 10918 10923 10929 10934 10939 10945 10950 10954 10959 10962 10964 10967 10969 10972 10974 10976 10979 10983 10986 10988 10991 10993 10994 10996 10997 10999 11000 11001
10851 10849 10846 10844 10841 10839 10837 10836 10834 10833 10831 10831 10831 10831 10830 10830 10831 10831 10831 10831 10830 10829 10828 10828 10828 10827 10825 10824 10823 10821 10820 10819 10817 10816 10816 10815 10814 10814 10814 10815 10815 10816 10818 10820 10823 10826 10834 10841 10846 10851 10857 10861 10864 10870 10877 10882 10888 10894 10900 10906 10912 10918 10923 10928 10934 10939 10945 10950 10954 10957 10960 10962 10965 10968 10971 10973 10976 10980 10983 10986 10988 10991 10993 10995 10996 10998 10999 11000
10847 10845 10842 10840 10838 10836 10835 10833 10832 10831 10830 10829 10829 10828 10828 10828 10828 10828 10828 10828 10826 10825 10824 10823 10823 10821 10820 10818 10817 10815 10813 10812 10811 10809 10808 10807 10806 10805 10805 10805 10806 10806 10808 10810 10813 10819 10824 10828 10833 10842 10849 10853 10856 10861 10867 10873 10880 10886 10893 10900 10906 10912 10917 10923 10929 10934 10940 10944 10948 10952 10955 10957 10960 10965 10968 10970 10973 10977 10981 10983 10986 10988 10991 10993 10995 10996 10998 10999
10843 10841 10839 10837 10835 10833 10832 10831 10830 10829 10828 10827 10827 10826 10826 10826 10825 10825 10825 10824 10823 10822 10820 10819 10817 10816 10814 10812 10811 10809 10806 10805 10804 10802 10800 10798 10797 10796 10795 10795 10795 10795 10796 10799 10803 10807 10811 10816 10824 10833 10841 10845 10847 10849 10856 10865 10872 10879 10886 10893 10899 10905 10911 10917 10923 10929 10934 10938 10942 10946 10949 10952 10956 10960 10964 10966 10970 10974 10978 10980 10983 10986 10989 10991 10993 10995 10996 10998
10839 10837 10835 10833 10832 10830 10829 10829 10828 10827 10826 10825 10825 10824 10824 10823 10822 10822 10821 10821 10819 10818 10817 10814 10812 10810 10808 10806 10805 10803 10799 10798 10796 10794 10792 10790 10788 10787 10785 10784 10784 10784 10785 10787 10790 10794 10799 10805 10814 10822 10828 10832 10834 10839 10849 10858 10864 10871 10879 10886 10892 10898 10905 10912 10918 10924 10927 10931 10936 10940 10943 10947 10951 10955 10960 10965 10970 10973 10974 10976 10980 10983 10986 10989 10991 10993 10995 10996
10835 10833 10831 10830 10829 10827 10827 10826 10825 10825 10824 10823 10823 10822 10822 10821 10819 10818 10818 10816 10815 10813 10812 10810 10807 10806 10803 10799 10798 10797 10793 10790 10789 10787 10785 10783 10781 10779 10776 10775 10774 10774 10775 10776 10778 10781 10786 10791 10798 10804 10810 10816 10823 10832 10843 10850 10855 10864 10873 10880 10886 10892 10899 10906 10911 10915 10919 10925 10931 10935 10937 10942 10947 10952 10958 10963 10967 10968 10970 10973 10977 10980 10983 10986 10988 10991 10993 10994
10831 10829 10827 10826 10825 10824 10824 10823 10823 10822 10822 10821 10820 10820 10819 10818 10817 10816 10814 10813 10811 10809 10807 10804 10802 10800 10798 10794 10791 10790 10788 10785 10783 10780 10778 10777 10774 10772 10769 10767 10766 10765 10765 10766 10767 10769 10773 10778 10783 10789 10797 10805 10815 10824 10833 10840 10848 10858 10867 10873 10880 10886 10893 10899 10903 10906 10913 10919 10925 10930 10933 10938 10944 10949 10954 10958 10961 10963 10966 10970 10972 10975 10979 10982 10986 10988 10990 10993
10827 10825 10824 10823 10822 10821 10821 10820 10820 10820 10819 10818 10817 10817 10817 10816 10814 10813 10812 10810 10808 10806 10803 10800 10797 10795 10793 10789 10785 10784 10783 10781 10778 10776 10773 10771 10768 10765 10763 10760 10758 10757 10757 10757 10757 10759 10763 10767 10773 10780 10787 10796 10805 10815 10824 10833 10842 10852 10860 10867 10873 10879 10886 10892 10896 10901 10908 10914 10920 10925 10929 10934 10939 10944 10949 10953 10956 10958 10962 10965 10968 10972 10976 10979 10983 10986 10989 10991
10823 10821 10820 10819 10818 10817 10817 10817 10817 10817 10816 10815 10814 10814 10814 10813 10811 10810 10808 10807 10804 10802 10800 10797 10794 10792 10789 10785 10781 10779 10777 10777 10775 10772 10770 10767 10763 10760 10757 10754 10751 10750 10749 10748 10748 10749 10752 10756 10761 10768 10776 10786 10797 10807 10816 10825 10834 10842 10849 10856 10862 10870 10877 10884 10890 10896 10902 10908 10915 10921 10924 10929 10933 10937 10943 10948 10950 10953 10957 10961 10965 10969 10973 10977 10980 10984 10987 10989
10818 10817 10816 10815 10814 10814 10813 10813 10813 10813 10813 10812 10811 10811 10810 10810 10808 10806 10805 10803 10801 10799 10796 10793 10790 10788 10786 10782 10778 10775 10773 10772 10771 10768 10766 10763 10759 10756 10752 10749 10745 10743 10742 10741 10740 10741 10743 10746 10752 10758 10766 10776 10786 10795 10805 10814 10821 10828 10835 10845 10854 10863 10870 10877 10883 10889 10896 10904 10911 10916 10920 10923 10927 10932 10938 10943 10945 10949 10954 10958 10962 10966 10970 10974 10978 10981 10984 10986
10814 10813 10812 10811 10810 10810 10810 10810 10810 10810 10810 10809 10808 10807 10807 10806 10805 10803 10801 10799 10797 10795 10791 10788 10786 10783 10780 10778 10775 10772 10769 10768 10767 10765 10762 10759 10755 10752 10748 10744 10740 10738 10736 10735 10734 10735 10736 10740 10745 10749 10755 10763 10772 10783 10795 10804 10811 10820 10832 10842 10849 10856 10864 10871 10877 10883 10891 10899 10905 10911 10916 10919 10924 10930 10935 10939 10942 10946 10951 10956 10960 10964 10968 10971 10975 10977 10980 10982
10810 10808 10807 10807 10806 10806 10806 10806 10806 10806 10806 10806 10805 10804 10803 10802 10801 10799 10797 10795 10794 10791 10787 10784 10782 10778 10775 10772 10771 10769 10766 10765 10763 10761 10758 10755 10752 10748 10745 10741 10736 10733 10731 10730 10729 10730 10731 10735 10738 10741 10746 10752 10762 10775 10786 10794 10803 10816 10827 10834 10840 10849 10858 10866 10873 10879 10886 10893 10900 10906 10911 10916 10922 10928 10932 10936 10939 10944 10949 10953 10958 10962 10965 10968 10971 10973 10976 10978
10806 10804 10804 10803 10802 10802 10802 10803 10803 10803 10803 10802 10801 10800 10799 10798 10797 10796 10793 10791 10789 10787 10784 10781 10778 10774 10771 10768 10766 10764 10763 10761 10759 10757 10755 10752 10748 10745 10741 10738 10733 10730 10727 10726 10725 10725 10727 10730 10732 10735 10740 10745 10754 10765 10775 10785 10796 10808 10816 10825 10837 10848 10855 10861 10867 10872 10878 10886 10894 10902 10907 10912 10919 10924 10928 10932 10936 10941 10946 10951 10955 10959 10962 10964 10966 10969 10973 10975
10801 10800 10800 10799 10799 10799 10799 10800 10800 10800 10799 10798 10797 10796 10795 10794 10793 10792 10790 10787 10785 10782 10779 10776 10774 10771 10768 10765 10762 10760 10759 10758 10756 10754 10752 10750 10746 10742 10738 10735 10731 10727 10724 10722 10722 10722 10723 10725 10727 10730 10735 10739 10745 10754 10765 10778 10790 10800 10809 10822 10837 10844 10848 10853 10859 10866 10874 10883 10891 10898 10904 10909 10915 10921 10925 10928 10932 10937 10943 10948 10952 10956 10958 10960 10963 10966 10970 10973
10797 10796 10796 10796 10795 10795 10796 10796 10797 10796 10796 10794 10793 10792 10792 10791 10789 10787 10786 10783 10781 10778 10775 10772 10770 10767 10765 10762 10759 10756 10754 10754 10752 10750 10749 10747 10744 10740 10736 10733 10729 10725 10721 10719 10718 10719 10720 10721 10723 10726 10730 10735 10741 10749 10761 10772 10782 10792 10804 10817 10825 10825 10829 10839 10850 10861 10871 10879 10886 10893 10899 10905 10911 10916 10921 10925 10929 10933 10939 10944 10948 10951 10954 10956 10960 10963 10967 10970
10793 10793 10792 10792 10792 10792 10793 10793 10793 10793 10792 10791 10789 10788 10787 10787 10785 10783 10781 10779 10776 10774 10771 10768 10765 10763 10761 10759 10757 10753 10751 10750 10749 10747 10746 10744 10742 10738 10735 10731 10727 10723 10719 10717 10716 10716 10717 10718 10720 10723 10728 10734 10741 10748 10757 10766 10776 10787 10798 10807 10810 10811 10819 10832 10844 10855 10865 10872 10880 10887 10894 10901 10906 10912 10917 10921 10925 10929 10935 10940 10944 10947 10950 10953 10957 10960 10963 10967
10790 10789 10789 10789 10789 10789 10790 10790 10790 10790 10789 10787 10785 10784 10783 10782 10781 10779 10776 10774 10772 10770 10767 10765 10762 10760 10758 10756 10754 10751 10748 10747 10746 10744 10743 10742 10740 10737 10734 10730 10726 10722 10718 10715 10714 10714 10715 10716 10717 10720 10725 10732 10739 10745 10751 10760 10770 10780 10790 10797 10802 10810 10822 10833 10841 10850 10859 10867 10875 10882 10889 10896 10902 10908 10913 10917 10921 10925 10931 10936 10940 10943 10947 10951 10954 10957 10960 10963
10787 10786 10786 10786 10786 10786 10786 10787 10787 10786 10785 10783 10782 10781 10779 10779 10777 10774 10772 10770 10768 10765 10763 10761 10759 10757 10755 10753 10751 10749 10746 10744 10742 10741 10740 10738 10737 10735 10733 10729 10725 10721 10717 10714 10712 10712 10712 10714 10715 10718 10723 10730 10736 10740 10746 10755 10765 10774 10783 10791 10799 10810 10823 10832 10839 10847 10856 10865 10872 10879 10886 10892 10898 10903 10908 10913 10917 10921 10927 10932 10936 10940 10945 10948 10950 10953 10957 10960
10784 10782 10782 10783 10783 10783 10783 10783 10783 10782 10781 10779 10778 10777 10776 10775 10773 10771 10768 10766 10765 10763 10759 10756 10755 10754 10753 10751 10749 10747 10744 10741 10740 10739 10737 10736 10734 10733 10731 10728 10724 10721 10717 10713 10711 10710 10710 10712 10714 10717 10722 10727 10731 10736 10742 10750 10760 10769 10778 10787 10797 10807 10817 10825 10834 10843 10852 10861 10869 10875 10881 10887 10893 10899 10904 10908 10912 10917 10922 10927 10932 10938 10942 10944 10946 10950 10954 10957
10781 10779 10779 10779 10779 10779 10779 10779 10778 10778 10777 10775 10774 10774 10772 10770 10769 10766 10764 10763 10762 10760 10756 10753 10751 10751 10750 10748 10746 10744 10742 10739 10737 10736 10735 10734 10732 10730 10728 10726 10723 10720 10717 10713 10710 10709 10709 10710 10712 10715 10719 10723 10727 10732 10738 10745 10754 10764 10774 10784 10794 10804 10812 10821 10829 10838 10846 10854 10862 10868 10874 10881 10887 10893 10899 10903 10907 10911 10917 10924 10931 10935 10938 10940 10943 10947 10950 10952
10778 10776 10774 10775 10776 10775 10774 10773 10773 10773 10772 10770 10770 10770 10768 10766 10764 10762 10760 10759 10757 10755 10753 10750 10748 10748 10747 10745 10743 10742 10740 10738 10736 10734 10732 10732 10731 10729 10727 10724 10722 10719 10717 10713 10710 10708 10707 10708 10710 10713 10717 10721 10725 10730 10736 10743 10751 10761 10771 10782 10792 10801 10809 10816 10824 10832 10840 10848 10854 10860 10867 10874 10881 10887 10892 10897 10902 10906 10912 10922 10930 10931 10933 10936 10939 10942 10945 10947
10775 10773 10771 10770 10771 10771 10769 10767 10767 10768 10767 10766 10765 10765 10763 10761 10759 10757 10755 10754 10752 10751 10748 10746 10745 10745 10743 10742 10740 10739 10737 10736 10734 10731 10730 10729 10729 10728 10726 10724 10721 10718 10716 10713 10710 10707 10706 10706 10708 10711 10714 10718 10722 10728 10734 10741 10749 10759 10769 10779 10789 10798 10804 10812 10820 10827 10834 10841 10848 10855 10862 10869 10875 10882 10887 10891 10897 10901 10906 10918 10927 10928 10930 10933 10934 10937 10940 10943
10769 10769 10767 10765 10765 10765 10764 10763 10762 10762 10761 10760 10760 10760 10758 10756 10754 10752 10750 10748 10747 10746 10744 10743 10742 10742 10740 10738 10737 10736 10734 10733 10732 10730 10727 10727 10726 10725 10724 10723 10720 10718 10715 10713 10710 10707 10705 10704 10706 10708 10710 10714 10719 10724 10731 10738 10745 10754 10764 10774 10784 10792 10799 10806 10813 10820 10827 10835 10841 10849 10857 10863 10870 10877 10881 10886 10892 10896 10900 10911 10920 10923 10926 10929 10930 10932 10936 10938
10763 10763 10762 10761 10759 10759 10759 10758 10757 10756 10755 10755 10755 10754 10752 10751 10749 10748 10745 10743 10742 10741 10740 10739 10739 10738 10737 10736 10734 10733 10732 10731 10730 10728 10726 10724 10723 10723 10722 10721 10720 10717 10714 10712 10710 10707 10704 10703 10704 10706 10708 10710 10715 10720 10727 10734 10742 10750 10759 10768 10777 10785 10792 10799 10806 10814 10821 10828 10834 10843 10852 10859 10866 10872 10876 10881 10886 10889 10894 10903 10910 10915 10920 10923 10924 10927 10930 10933
10756 10756 10756 10755 10753 10752 10752 10752 10751 10751 10750 10749 10749 10748 10747 10745 10744 10742 10740 10738 10737 10737 10737 10736 10736 10736 10735 10734 10732 10731 10729 10728 10727 10726 10724 10722 10721 10720 10719 10719 10719 10717 10714 10711 10709 10707 10704 10701 10701 10703 10705 10707 10711 10716 10723 10730 10738 10746 10754 10763 10771 10778 10786 10794 10801 10808 10815 10821 10829 10839 10846 10853 10861 10866 10871 10876 10881 10884 10889 10895 10901 10907 10911 10915 10919 10922 10924 10926
10749 10749 10748 10748 10747 10746 10745 10745 10745 10745 10744 10744 10743 10742 10741 10739 10738 10737 10736 10734 10734 10734 10734 10733 10733 10733 10732 10731 10730 10729 10728 10726 10725 10723 10722 10720 10719 10717 10716 10716 10716 10715 10714 10711 10708 10706 10704 10701 10700 10701 10702 10705 10708 10713 10718 10726 10733 10741 10750 10758 10766 10774 10781 10788 10795 10803 10810 10817 10824 10832 10839 10846 10854 10861 10865 10870 10874 10878 10883 10888 10894 10901 10906 10910 10914 10915 10916 10919
10742 10741 10741 10740 10740 10739 10738 10738 10738 10738 10738 10738 10737 10736 10735 10734 10733 10733 10732 10731 10731 10731 10731 10731 10730 10730 10730 10729 10728 10726 10725 10724 10723 10721 10720 10718 10717 10715 10714 10713 10713 10712 10712 10711 10708 10706 10704 10701 10699 10698 10700 10703 10705 10709 10714 10721 10729 10737 10746 10754 10761 10769 10776 10783 10790 10797 10805 10812 10818 10826 10833 10840 10848 10855 10860 10864 10868 10872 10877 10881 10887 10894 10900 10904 10907 10908 10909 10914
10736 10735 10734 10733 10733 10732 10732 10732 10732 10732 10732 10732 10732 10731 10730 10730 10730 10729 10729 10729 10729 10728 10728 10728 10727 10727 10726 10726 10725 10723 10722 10722 10720 10719 10717 10716 10715 10713 10712 10711 10711 10710 10710 10709 10708 10705 10703 10701 10698 10697 10698 10701 10703 10706 10710 10717 10724 10733 10741 10749 10756 10763 10771 10778 10785 10792 10799 10805 10812 10820 10827 10834 10842 10849 10854 10859 10864 10868 10871 10876 10881 10887 10892 10897 10901 10903 10905 10910